N792JC KFXE-KDAB

Flight info

Callsign N792JC
Flight time 0h 45m
Altitude 37000
Route FRSBE2 WAPOM VALKA/N0349F160 T208 SMYRA
Aircraft HDJT/L-SABDGRWY/H

Departure

Time 2026-04-25 23:25
Airport Fort Lauderdale Executive Airport (KFXE)

Arrival

Time 2026-04-26 00:10
Airport Daytona Beach International Airport (KDAB)
Time Latitude Longitude Altitude Speed Heading
2026-04-25 22:53 26.19187 -80.16676 19 ft 0 kts 232°
2026-04-25 23:18 26.19185 -80.16678 19 ft 0 kts 209°
2026-04-25 23:18 26.19175 -80.16672 19 ft 4 kts 108°
2026-04-25 23:18 26.19193 -80.16621 19 ft 9 kts 28°
2026-04-25 23:18 26.19208 -80.16615 19 ft 0 kts
2026-04-25 23:19 26.19211 -80.16615 19 ft 2 kts 360°
2026-04-25 23:19 26.19250 -80.16644 19 ft 11 kts 309°
2026-04-25 23:19 26.19312 -80.16730 20 ft 17 kts 309°
2026-04-25 23:20 26.19401 -80.16853 19 ft 24 kts 308°
2026-04-25 23:20 26.19486 -80.16969 22 ft 15 kts 309°
2026-04-25 23:20 26.19547 -80.17055 23 ft 14 kts 309°
2026-04-25 23:20 26.19608 -80.17138 24 ft 14 kts 309°
2026-04-25 23:21 26.19666 -80.17219 25 ft 11 kts 308°
2026-04-25 23:21 26.19703 -80.17269 27 ft 5 kts 308°
2026-04-25 23:21 26.19726 -80.17301 26 ft 5 kts 308°
2026-04-25 23:21 26.19737 -80.17339 26 ft 6 kts 266°
2026-04-25 23:22 26.19733 -80.17389 25 ft 7 kts 264°
2026-04-25 23:22 26.19727 -80.17455 23 ft 10 kts 262°
2026-04-25 23:22 26.19718 -80.17543 20 ft 13 kts 263°
2026-04-25 23:23 26.19696 -80.17758 19 ft 14 kts 263°
2026-04-25 23:23 26.19685 -80.17871 17 ft 15 kts 264°
2026-04-25 23:23 26.19673 -80.17995 14 ft 11 kts 262°
2026-04-25 23:23 26.19691 -80.18067 13 ft 10 kts 321°
2026-04-25 23:24 26.19753 -80.18074 13 ft 7 kts 40°
2026-04-25 23:24 26.19773 -80.17931 15 ft 52 kts 83°
2026-04-25 23:24 26.19845 -80.17202 28 ft 133 kts 84°
2026-04-25 23:24 26.19958 -80.16151 510 ft 144 kts 83°
2026-04-25 23:25 26.20087 -80.14969 956 ft 164 kts 84°
2026-04-25 23:25 26.20251 -80.13621 1441 ft 188 kts 84°
2026-04-25 23:25 26.20444 -80.12099 1978 ft 213 kts 84°
2026-04-25 23:25 26.20663 -80.10332 2016 ft 254 kts 84°
2026-04-25 23:26 26.20902 -80.08374 2800 ft 254 kts 84°
2026-04-25 23:26 26.21147 -80.06398 3505 ft 262 kts 83°
2026-04-25 23:26 26.21507 -80.04393 4234 ft 268 kts 68°
2026-04-25 23:26 26.22594 -80.02711 5012 ft 273 kts 38°
2026-04-25 23:27 26.24278 -80.01810 5835 ft 270 kts 10°
2026-04-25 23:27 26.26137 -80.01885 6460 ft 269 kts 342°
2026-04-25 23:27 26.27726 -80.02936 7071 ft 268 kts 314°
2026-04-25 23:27 26.28855 -80.04565 7633 ft 270 kts 304°
2026-04-25 23:28 26.29960 -80.06279 8170 ft 274 kts 309°
2026-04-25 23:28 26.31269 -80.07814 8787 ft 275 kts 317°
2026-04-25 23:28 26.32733 -80.09206 9357 ft 278 kts 319°
2026-04-25 23:28 26.34180 -80.10636 9952 ft 279 kts 317°
2026-04-25 23:29 26.35611 -80.12151 10187 ft 293 kts 316°
2026-04-25 23:29 26.37135 -80.13754 10341 ft 305 kts 317°
2026-04-25 23:29 26.38693 -80.15359 10725 ft 307 kts 317°
2026-04-25 23:29 26.40257 -80.16972 11444 ft 306 kts 317°
2026-04-25 23:30 26.41824 -80.18598 12057 ft 310 kts 317°
2026-04-25 23:30 26.43408 -80.20244 12695 ft 312 kts 317°
2026-04-25 23:30 26.45006 -80.21900 13336 ft 315 kts 317°
2026-04-25 23:30 26.46615 -80.23570 13942 ft 317 kts 317°
2026-04-25 23:31 26.48237 -80.25254 14500 ft 320 kts 317°
2026-04-25 23:31 26.49852 -80.26932 15039 ft 322 kts 316°
2026-04-25 23:31 26.51496 -80.28640 15594 ft 325 kts 316°
2026-04-25 23:31 26.53156 -80.30365 16137 ft 327 kts 316°
2026-04-25 23:32 26.54662 -80.31931 16659 ft 328 kts 316°
2026-04-25 23:32 26.56337 -80.33673 17220 ft 330 kts 316°
2026-04-25 23:32 26.58025 -80.35431 17736 ft 333 kts 316°
2026-04-25 23:32 26.59729 -80.37205 18247 ft 336 kts 316°
2026-04-25 23:33 26.61447 -80.38994 18686 ft 339 kts 316°
2026-04-25 23:33 26.63173 -80.40793 19129 ft 341 kts 316°
2026-04-25 23:33 26.64916 -80.42610 19569 ft 344 kts 316°
2026-04-25 23:33 26.66670 -80.44440 20006 ft 346 kts 315°
2026-04-25 23:34 26.68438 -80.46284 20441 ft 349 kts 315°
2026-04-25 23:34 26.70217 -80.48142 20877 ft 351 kts 315°
2026-04-25 23:34 26.71986 -80.49989 21302 ft 354 kts 315°
2026-04-25 23:34 26.73789 -80.51873 21733 ft 356 kts 315°
2026-04-25 23:35 26.75607 -80.53774 22153 ft 359 kts 315°
2026-04-25 23:35 26.77443 -80.55693 22513 ft 363 kts 316°
2026-04-25 23:35 26.79295 -80.57631 22910 ft 366 kts 315°
2026-04-25 23:35 26.81162 -80.59586 22923 ft 368 kts 316°
2026-04-25 23:36 26.83028 -80.61539 22922 ft 367 kts 315°
2026-04-25 23:36 26.84893 -80.63494 22922 ft 367 kts 315°
2026-04-25 23:36 26.86732 -80.65422 22936 ft 367 kts 315°
2026-04-25 23:36 26.88590 -80.67370 22936 ft 365 kts 315°
2026-04-25 23:37 26.90558 -80.69174 22938 ft 367 kts 324°
2026-04-25 23:37 26.92787 -80.70581 22935 ft 369 kts 333°
2026-04-25 23:37 26.95197 -80.71583 22933 ft 371 kts 339°
2026-04-25 23:37 26.97647 -80.72496 22930 ft 371 kts 339°
2026-04-25 23:38 27.00090 -80.73431 22925 ft 371 kts 339°
2026-04-25 23:38 27.02536 -80.74362 22924 ft 371 kts 339°
2026-04-25 23:38 27.04985 -80.75283 22923 ft 371 kts 339°
2026-04-25 23:38 27.07399 -80.76194 22919 ft 371 kts 339°
2026-04-25 23:39 27.09846 -80.77123 22918 ft 371 kts 339°
2026-04-25 23:39 27.12293 -80.78051 22917 ft 371 kts 339°
2026-04-25 23:39 27.14740 -80.78978 22916 ft 371 kts 339°
2026-04-25 23:39 27.17187 -80.79906 22920 ft 371 kts 339°
2026-04-25 23:40 27.19635 -80.80835 22916 ft 371 kts 339°
2026-04-25 23:40 27.22084 -80.81764 22915 ft 371 kts 338°
2026-04-25 23:40 27.24532 -80.82695 22915 ft 371 kts 338°
2026-04-25 23:40 27.26980 -80.83621 22914 ft 370 kts 339°
2026-04-25 23:41 27.29452 -80.84378 22295 ft 367 kts 342°
2026-04-25 23:41 27.31892 -80.85156 21506 ft 365 kts 341°
2026-04-25 23:41 27.34318 -80.85945 20789 ft 359 kts 341°
2026-04-25 23:41 27.36697 -80.86726 20079 ft 355 kts 341°
2026-04-25 23:42 27.39051 -80.87498 19379 ft 350 kts 341°
2026-04-25 23:42 27.41354 -80.88205 18706 ft 346 kts 342°
2026-04-25 23:42 27.43666 -80.88887 18022 ft 341 kts 343°
2026-04-25 23:42 27.45950 -80.89555 17248 ft 337 kts 343°
2026-04-25 23:43 27.48207 -80.90217 16489 ft 333 kts 343°
2026-04-25 23:43 27.50435 -80.90877 15760 ft 329 kts 343°
2026-04-25 23:43 27.52625 -80.91525 15091 ft 323 kts 343°
2026-04-25 23:43 27.54788 -80.92152 15004 ft 321 kts 343°
2026-04-25 23:44 27.56962 -80.92780 15006 ft 323 kts 343°
2026-04-25 23:44 27.59109 -80.93401 15006 ft 323 kts 343°
2026-04-25 23:44 27.61284 -80.94029 15006 ft 323 kts 343°
2026-04-25 23:44 27.63459 -80.94657 15006 ft 323 kts 343°
2026-04-25 23:45 27.65635 -80.95287 15006 ft 323 kts 343°
2026-04-25 23:45 27.67808 -80.95915 15006 ft 323 kts 343°
2026-04-25 23:45 27.69989 -80.96546 15006 ft 323 kts 343°
2026-04-25 23:45 27.72162 -80.97174 15006 ft 323 kts 343°
2026-04-25 23:46 27.74338 -80.97803 15006 ft 323 kts 343°
2026-04-25 23:46 27.76514 -80.98432 15006 ft 323 kts 343°
2026-04-25 23:46 27.78665 -80.99055 15002 ft 324 kts 343°
2026-04-25 23:46 27.80854 -80.99691 15003 ft 325 kts 343°
2026-04-25 23:47 27.83039 -81.00327 15006 ft 325 kts 343°
2026-04-25 23:47 27.85229 -81.00965 15006 ft 325 kts 343°
2026-04-25 23:47 27.87417 -81.01602 15006 ft 325 kts 343°
2026-04-25 23:47 27.89604 -81.02239 15006 ft 325 kts 343°
2026-04-25 23:48 27.91786 -81.02874 15001 ft 325 kts 343°
2026-04-25 23:48 27.93975 -81.03512 15001 ft 325 kts 343°
2026-04-25 23:48 27.96162 -81.04149 15001 ft 324 kts 343°
2026-04-25 23:48 27.98321 -81.04778 15001 ft 325 kts 343°
2026-04-25 23:49 28.00510 -81.05416 15001 ft 325 kts 343°
2026-04-25 23:49 28.02698 -81.06054 15001 ft 325 kts 343°
2026-04-25 23:49 28.04881 -81.06691 15001 ft 325 kts 343°
2026-04-25 23:49 28.07068 -81.07330 15001 ft 325 kts 343°
2026-04-25 23:50 28.09260 -81.07971 15001 ft 327 kts 343°
2026-04-25 23:50 28.11464 -81.08619 15001 ft 327 kts 343°
2026-04-25 23:50 28.13668 -81.09269 15003 ft 327 kts 343°
2026-04-25 23:50 28.15872 -81.09920 15004 ft 327 kts 343°
2026-04-25 23:51 28.18074 -81.10570 15010 ft 327 kts 343°
2026-04-25 23:51 28.20270 -81.11220 15012 ft 327 kts 343°
2026-04-25 23:51 28.22441 -81.11861 15015 ft 327 kts 343°
2026-04-25 23:51 28.24643 -81.12511 14988 ft 327 kts 343°
2026-04-25 23:52 28.26844 -81.13161 14656 ft 326 kts 343°
2026-04-25 23:52 28.29021 -81.13804 14077 ft 321 kts 343°
2026-04-25 23:52 28.31175 -81.14441 13363 ft 318 kts 343°
2026-04-25 23:52 28.33313 -81.15076 12597 ft 317 kts 343°
2026-04-25 23:53 28.35413 -81.15701 12170 ft 301 kts 343°
2026-04-25 23:53 28.37384 -81.16285 11660 ft 290 kts 343°
2026-04-25 23:53 28.39335 -81.16864 10927 ft 289 kts 343°
2026-04-25 23:53 28.41276 -81.17442 10213 ft 288 kts 343°
2026-04-25 23:54 28.43184 -81.18013 9490 ft 287 kts 343°
2026-04-25 23:54 28.45109 -81.18591 8748 ft 285 kts 343°
2026-04-25 23:54 28.47020 -81.19164 8031 ft 283 kts 343°
2026-04-25 23:54 28.48916 -81.19732 7349 ft 281 kts 343°
2026-04-25 23:55 28.50793 -81.20296 7065 ft 280 kts 343°
2026-04-25 23:55 28.52683 -81.20865 6826 ft 281 kts 343°
2026-04-25 23:55 28.54568 -81.21431 6589 ft 280 kts 343°
2026-04-25 23:55 28.56450 -81.21997 6354 ft 280 kts 343°
2026-04-25 23:56 28.58331 -81.22561 6111 ft 279 kts 343°
2026-04-25 23:56 28.60206 -81.23125 5856 ft 278 kts 343°
2026-04-25 23:56 28.62073 -81.23688 5603 ft 277 kts 343°
2026-04-25 23:56 28.63908 -81.24241 5362 ft 276 kts 343°
2026-04-25 23:57 28.65761 -81.24802 5115 ft 275 kts 343°
2026-04-25 23:57 28.67606 -81.25362 4875 ft 275 kts 343°
2026-04-25 23:57 28.69456 -81.25845 4631 ft 272 kts 349°
2026-04-25 23:57 28.71337 -81.26106 4380 ft 272 kts 352°
2026-04-25 23:58 28.73221 -81.26315 4132 ft 272 kts 353°
2026-04-25 23:58 28.75106 -81.26518 4004 ft 271 kts 353°
2026-04-25 23:58 28.76989 -81.26724 4005 ft 272 kts 353°
2026-04-25 23:58 28.78877 -81.26931 4006 ft 273 kts 353°
2026-04-25 23:59 28.80739 -81.27137 4006 ft 272 kts 353°
2026-04-25 23:59 28.82618 -81.27346 4006 ft 272 kts 353°
2026-04-25 23:59 28.84504 -81.27551 4005 ft 272 kts 353°
2026-04-25 23:59 28.86374 -81.27755 3755 ft 268 kts 353°
2026-04-26 00:00 28.88203 -81.27958 3270 ft 246 kts 353°
2026-04-26 00:00 28.89917 -81.28160 3008 ft 251 kts 353°
2026-04-26 00:00 28.91646 -81.28367 3010 ft 246 kts 352°
2026-04-26 00:00 28.93348 -81.28541 3008 ft 246 kts 353°
2026-04-26 00:01 28.95057 -81.28722 3013 ft 247 kts 352°
2026-04-26 00:01 28.96768 -81.28906 3018 ft 248 kts 352°
2026-04-26 00:01 28.98498 -81.29080 3012 ft 250 kts 353°
2026-04-26 00:01 29.00206 -81.29246 3010 ft 247 kts 352°
2026-04-26 00:02 29.01857 -81.29397 3012 ft 231 kts 353°
2026-04-26 00:02 29.03442 -81.29535 3005 ft 228 kts 353°
2026-04-26 00:02 29.05028 -81.29677 3006 ft 228 kts 353°
2026-04-26 00:02 29.06611 -81.29818 3001 ft 228 kts 352°
2026-04-26 00:03 29.08191 -81.29956 2999 ft 228 kts 353°
2026-04-26 00:03 29.09772 -81.30103 3003 ft 228 kts 354°
2026-04-26 00:03 29.11352 -81.30254 3002 ft 229 kts 353°
2026-04-26 00:03 29.12934 -81.30405 3001 ft 227 kts 353°
2026-04-26 00:04 29.14509 -81.30285 3001 ft 231 kts 18°
2026-04-26 00:04 29.15811 -81.29260 2934 ft 235 kts 50°
2026-04-26 00:04 29.16465 -81.27590 2685 ft 228 kts 85°
2026-04-26 00:04 29.16229 -81.25872 2449 ft 216 kts 119°
2026-04-26 00:05 29.15223 -81.24671 2211 ft 210 kts 154°
2026-04-26 00:05 29.13825 -81.24221 1980 ft 209 kts 171°
2026-04-26 00:05 29.12490 -81.23626 1734 ft 209 kts 141°
2026-04-26 00:05 29.11712 -81.22242 1616 ft 211 kts 106°
2026-04-26 00:06 29.11816 -81.20674 1607 ft 191 kts 69°
2026-04-26 00:06 29.12434 -81.19444 1603 ft 164 kts 63°
2026-04-26 00:06 29.12923 -81.18413 1600 ft 132 kts 67°
2026-04-26 00:06 29.13297 -81.17540 1583 ft 115 kts 69°
2026-04-26 00:07 29.13645 -81.16709 1589 ft 120 kts 69°
2026-04-26 00:07 29.13993 -81.15848 1533 ft 118 kts 70°
2026-04-26 00:07 29.14331 -81.15008 1406 ft 115 kts 70°
2026-04-26 00:07 29.14661 -81.14182 1257 ft 114 kts 70°
2026-04-26 00:08 29.14999 -81.13360 1091 ft 114 kts 70°
2026-04-26 00:08 29.15326 -81.12538 961 ft 114 kts 70°
2026-04-26 00:08 29.15667 -81.11707 836 ft 117 kts 69°
2026-04-26 00:08 29.16010 -81.10851 725 ft 120 kts 69°
2026-04-26 00:09 29.16350 -81.09982 568 ft 122 kts 68°
2026-04-26 00:09 29.16715 -81.09103 391 ft 122 kts 67°
2026-04-26 00:09 29.17066 -81.08230 182 ft 120 kts 70°
2026-04-26 00:09 29.17408 -81.07396 47 ft 108 kts 70°
2026-04-26 00:10 29.17692 -81.06699 31 ft 89 kts 64°
2026-04-26 00:10 29.17851 -81.06310 35 ft 22 kts 65°
2026-04-26 00:10 29.17923 -81.06135 41 ft 18 kts 61°
2026-04-26 00:10 29.18031 -81.06120 37 ft 22 kts 348°
2026-04-26 00:11 29.18115 -81.06031 37 ft 23 kts 66°
2026-04-26 00:11 29.18197 -81.05830 36 ft 32 kts 65°
2026-04-26 00:11 29.18290 -81.05600 37 ft 31 kts 65°
2026-04-26 00:11 29.18339 -81.05479 37 ft 13 kts 64°
2026-04-26 00:12 29.18388 -81.05441 37 ft 8 kts 345°
2026-04-26 00:12 29.18444 -81.05467 37 ft 9 kts 337°
2026-04-26 00:12 29.18528 -81.05508 36 ft 16 kts 330°
2026-04-26 00:12 29.18559 -81.05589 34 ft 6 kts 247°
2026-04-26 00:13 29.18541 -81.05601 34 ft 0 kts 179°